カタログに戻る

YAOGAN-50

運用中軍事LEO
NORAD 67433·PAYLOAD·🇨🇳 China

打ち上げ Jan 13, 2026 から Taiyuan Satellite Launch Center

Loading…

次のパス (今後24時間)

TLE

最新Source: Space-Track

元期: Sep 14, 2026, 13:46 UTC

1 67433U 26006A   26257.57394948  .00000315  00000-0  11480-3 0  9994
2 67433 142.0416 287.7440 0001058 288.2462  71.8142 13.83249634 33812

AllMySatでYAOGAN-50をリアルタイム追跡

Download on the App Store